Location: Helsinki
(60.1699°N, 24.9384°E)
Time: 23:53:29
(UTC+02:00)

A-11 Canister half - Pass Details

Date: 29 October 2020
Orbit: 1516 x 1684 km, 47.2° (Epoch: 26 November)

Event Time Altitude Azimuth Distance (km) Brightness Sun altitude
Rises 02:48:12 0° 278° (W) 4,871 - -34.6°
Reaches altitude 10° 02:52:30 10° 262° (W) 3,853 - -34.2°
Maximum altitude 02:58:44 19° 222° (SW) 3,123 - -33.6°
Drops below altitude 10° 03:04:50 10° 181° (S) 3,757 - -32.9°
Sets 03:08:59 0° 165° (SSE) 4,710 - -32.5°
Exits shadow 03:09:00 - 165° (SSE) 4,714 11.4 -32.5°
